Location: Ernez
(36.4595°N, 29.8755°E)
Time: 09:44:33
(UTC+00:00)

CZ-2D R/B - Pass Details

Date: 13 November 2025
Orbit: 526 x 597 km, 98.0° (Epoch: 05 December)

Event Time Altitude Azimuth Distance (km) Brightness Sun altitude
Rises 16:07:50 0° 159° (SSE) 2,741 6.8 -15.2°
Reaches altitude 10° 16:09:57 10° 156° (SSE) 1,862 5.9 -15.6°
Maximum altitude 16:13:56 63° 75° (ENE) 649 3.3 -16.4°
Drops below altitude 10° 16:18:03 10° 355° (N) 1,915 6.0 -17.2°
Sets 16:20:15 0° 352° (N) 2,829 6.9 -17.6°
